Regional Weather Roundup
Issued by NWS Albany, NY

Home | Current Version | Previous Version | Graphics & Text | Print | Product List | Glossary On
Versions: 1 2 3 4 5 6 7 8 9 10 11 12 13 14 15 16 17 18 19 20 21 22 23 24 25 26 27 28 29 30 31 32 33 34 35 36 37 38 39 40 41 42 43 44 45 46 47 48 49 50
000
ASUS41 KALY 021610
RWRALY

NEW YORK STATE HOURLY WEATHER ROUNDUP
NATIONAL WEATHER SERVICE ALBANY NY
1200 PM EDT SUN AUG 02 2015

NOTE: "FAIR" INDICATES FEW OR NO CLOUDS BELOW 12,000 FEET WITH NO
SIGNIFICANT WEATHER AND/OR NO OBSTRUCTIONS TO VISIBILITY.

NYZ032-033-038>043-046>054-057>066-NYZ062>081-021700-
EAST


CITY           SKY/WX    TMP DP  RH WIND       PRES   REMARKS
ALBANY         MOSUNNY   81  58  45 VRB5      29.91S
GLENS FALLS    SUNNY     76  60  57 SE9       29.89S
POUGHKEEPSIE   SUNNY     85  54  34 SW9       29.92S
NEWBURGH       MOSUNNY   82  57  42 W7        29.95S
MONTGOMERY     SUNNY     83  56  39 S9        29.93S
WHITE PLAINS   MOSUNNY   83  56  39 S7        29.94F
ISLIP          MOSUNNY   83  56  39 S9        29.92S
NEW YORK CITY  MOSUNNY   85  51  31 VRB6      29.92F
CENTRAL PARK   SUNNY     86  54  33 SW3       29.96S
$$

NYZ005>009-017-018-044>046-055-056-021700-
CENTRAL


CITY           SKY/WX    TMP DP  RH WIND       PRES   REMARKS
FULTON         SUNNY     79  62  56 S9        29.86S
SYRACUSE       MOSUNNY   79  61  53 SW6       29.86F
ROME           SUNNY     77  59  53 S7        29.89F
ELMIRA         MOSUNNY   79  55  43 NW10      29.90S
BINGHAMTON     SUNNY     75  59  57 W8        29.94F
MONTICELLO     MOSUNNY   77  55  47 MISG      29.98S
$$

NYZ026>034-041>043-021700-
NORTH


CITY           SKY/WX    TMP DP  RH WIND       PRES   REMARKS
WATERTOWN      SUNNY     78  58  49 SW10      29.83F
FORT DRUM      NOT AVBL
MASSENA        MOSUNNY   77  61  57 S9        29.82F
SARANAC LAKE     N/A     71  56  58 SW9       29.88S
PLATTSBURGH    PTSUNNY   77  63  61 S8        29.84S
$$

NYZ001>004-010>016-019>021-021700-
WEST


CITY           SKY/WX    TMP DP  RH WIND       PRES   REMARKS
NIAGARA FALLS  MOSUNNY   79  56  45 SW14      29.84F
BUFFALO        MOSUNNY   78  55  44 SW16G22   29.86F
DUNKIRK        SUNNY     79  55  43 SW15      29.88F
JAMESTOWN      SUNNY     73  52  46 SW13      29.94F
WELLSVILLE     SUNNY     75  52  44 W12G22    29.97F
ROCHESTER      PTSUNNY   80  54  40 W14G21    29.85F
PENN YAN       SUNNY     79  54  41 SW9       29.90S
$$

             KEY
       WCI = WIND CHILL INDEX
       VSB = VISIBILITY
       HX  = HEAT INDEX
$$


USA.gov is the U.S. government's official web portal to all federal, state and local government web resources and services.